Waarnemingen

Advertentie
Mijn weer
Chassiron, Frankrijk (7314): temperatuur & dauwpunt: 18.04.2018 10:00:00 - 24.04.2018 10:00:00 (CEST)Chassiron, Frankrijk (7314): windsnelheid & windstoten: 18.04.2018 10:00:00 - 24.04.2018 10:00:00 (CEST)Chassiron, Frankrijk (7314): windrichting: 18.04.2018 10:00:00 - 24.04.2018 10:00:00 (CEST)Chassiron, Frankrijk (7314): luchtdruk: 18.04.2018 10:00:00 - 24.04.2018 10:00:00 (CEST)Chassiron, Frankrijk (7314): zicht: 18.04.2018 10:00:00 - 24.04.2018 10:00:00 (CEST)Chassiron, Frankrijk (7314): neerslag: 18.04.2018 10:00:00 - 24.04.2018 10:00:00 (CEST)
Datum & Tijd tt [°C] td [°C] ff [km/u] ff [kn] fx [km/u] fx [kn] dd ppp [hPa] vv [km] rr [mm]
24.04.2018 10:00:00 13,7 8,1 6 3 10 6 W 1022,2 - 0,0
24.04.2018 09:00:00 12,9 7,8 6 3 13 7 WZW 1022,0 - 0,0
24.04.2018 08:00:00 12,4 7,9 6 3 14 8 WNW 1021,8 17 0,0
24.04.2018 07:00:00 12,0 7,7 8 5 16 9 WNW 1021,4 - 0,0
24.04.2018 06:00:00 12,5 8,4 10 5 16 9 NW 1021,4 - 0,0
24.04.2018 05:00:00 12,5 8,4 10 5 21 11 NNW 1021,7 8 0,0
24.04.2018 04:00:00 12,8 8,5 13 7 22 12 NW 1021,8 - 0,0
24.04.2018 03:00:00 12,9 8,6 15 8 22 12 NW 1022,2 - 0,0
24.04.2018 02:00:00 13,0 8,7 14 8 27 14 NW 1022,4 - 0,0
24.04.2018 01:00:00 13,2 8,7 18 10 29 15 NW 1022,5 - 0,0
24.04.2018 00:00:00 13,4 8,7 21 11 29 16 NW 1022,7 - 0,0
23.04.2018 23:00:00 13,5 8,8 19 10 26 14 NW 1022,7 20 0,0
23.04.2018 22:00:00 13,6 9,2 15 8 23 13 NW 1022,4 - 0,0
23.04.2018 21:00:00 13,9 9,3 13 7 24 13 NW 1021,6 - 0,0
23.04.2018 20:00:00 14,5 9,7 14 7 23 12 NW 1021,6 - 0,0
23.04.2018 19:00:00 14,7 10,1 12 7 22 12 NW 1021,8 - 0,0
23.04.2018 18:00:00 15,0 11,2 12 6 23 12 WNW 1021,9 - 0,0
23.04.2018 17:00:00 15,2 11,4 17 9 24 13 WNW 1022,0 17 0,0
23.04.2018 16:00:00 15,9 10,6 12 6 17 9 W 1022,2 - 0,0
23.04.2018 15:00:00 16,2 10,7 8 5 16 9 WNW 1022,4 - 0,0
23.04.2018 14:00:00 15,8 10,1 11 6 22 12 NW 1022,4 18 0,0
23.04.2018 13:00:00 16,0 10,5 10 6 19 10 WNW 1022,4 - 0,0
23.04.2018 12:00:00 15,6 11,0 11 6 18 10 WNW 1022,5 - 0,0
23.04.2018 11:00:00 14,9 10,9 11 6 18 10 NW 1022,1 16 0,0
23.04.2018 10:00:00 14,3 11,4 13 7 19 10 NW 1021,5 - 0,0
23.04.2018 09:00:00 14,3 10,7 10 6 20 11 NNW 1020,8 - 0,0
23.04.2018 08:00:00 14,0 10,6 16 9 27 15 NNW 1020,4 - 0,0
23.04.2018 07:00:00 13,8 10,6 20 11 29 16 NNW 1019,5 - 0,0
23.04.2018 06:00:00 13,7 10,5 19 10 27 14 NW 1019,4 - 0,0
23.04.2018 05:00:00 13,7 10,7 17 9 28 15 NW 1019,4 8 0,0
23.04.2018 04:00:00 13,8 11,3 22 12 32 17 WNW 1018,9 - 0,0
23.04.2018 03:00:00 14,4 11,9 16 9 29 15 W 1018,8 - 0,0
23.04.2018 02:00:00 14,4 12,1 21 11 31 17 W 1019,0 5 0,0
23.04.2018 01:00:00 14,6 12,6 20 11 30 16 W 1019,0 - 0,0
23.04.2018 00:00:00 14,6 12,8 21 11 27 15 W 1018,5 - 0,0
22.04.2018 23:00:00 14,7 12,9 12 7 22 12 WZW 1018,0 8 0,0
22.04.2018 22:00:00 14,8 13,0 14 8 27 14 W 1017,5 - 0,0
22.04.2018 21:00:00 15,1 13,3 20 11 27 14 W 1016,7 - 0,0
22.04.2018 20:00:00 15,9 13,9 16 9 22 12 W 1016,1 8 0,0
22.04.2018 19:00:00 15,9 13,9 14 8 30 16 WZW 1015,9 - 0,0
22.04.2018 18:00:00 16,0 14,0 24 13 32 18 W 1015,5 - 0,0
22.04.2018 17:00:00 16,3 13,8 21 12 29 16 WZW 1015,5 - 0,0
22.04.2018 16:00:00 16,6 13,9 14 8 19 10 ZW 1015,7 - 0,0
22.04.2018 15:00:00 16,8 14,3 12 6 24 13 W 1015,8 - 0,0
22.04.2018 14:00:00 16,3 14,1 18 10 35 19 W 1015,5 5 0,0
22.04.2018 13:00:00 16,6 14,2 25 14 33 18 W 1015,6 - 0,0
22.04.2018 12:00:00 17,4 14,9 11 6 23 12 ZW 1015,2 - 0,0
22.04.2018 11:00:00 17,0 14,5 16 9 22 12 ZW 1015,2 10 0,0
22.04.2018 10:00:00 16,6 14,4 13 7 22 12 Z 1014,5 - 0,0
22.04.2018 09:00:00 16,3 14,3 15 8 22 12 Z 1014,5 - 0,0
22.04.2018 08:00:00 16,1 13,9 11 6 19 11 Z 1014,1 - 0,0
22.04.2018 07:00:00 16,4 13,5 13 7 25 13 Z 1014,0 - 0,0
22.04.2018 06:00:00 16,7 12,4 17 9 26 14 ZZO 1013,8 - 0,0
22.04.2018 05:00:00 17,1 12,2 16 8 20 11 Z 1014,2 - 0,0
22.04.2018 04:00:00 16,7 10,8 14 8 24 13 ZZO 1014,3 - 0,0
22.04.2018 03:00:00 16,9 11,0 14 7 19 10 ZO 1014,6 - 0,0
22.04.2018 02:00:00 15,7 8,9 8 5 10 5 OZO 1015,0 10 0,0
22.04.2018 01:00:00 15,5 11,3 5 3 6 3 ZO 1015,3 - 0,0
22.04.2018 00:00:00 15,8 11,4 0 0 4 2 N 1015,4 - 0,0
21.04.2018 23:00:00 16,5 11,6 0 0 10 5 N 1015,4 - 0,0
21.04.2018 22:00:00 17,2 10,3 9 5 10 6 NO 1015,3 - 0,0
21.04.2018 21:00:00 17,2 13,3 6 3 10 6 N 1015,4 - 0,0
21.04.2018 20:00:00 18,4 14,1 9 5 11 6 NW 1015,6 - 0,0
21.04.2018 19:00:00 19,6 15,0 8 4 12 7 WNW 1015,9 - 0,0
21.04.2018 18:00:00 20,1 14,5 8 5 14 8 WNW 1016,5 - 0,0
21.04.2018 17:00:00 20,7 12,9 4 2 13 7 NW 1016,8 17 0,0
21.04.2018 16:00:00 20,8 13,0 7 4 16 9 W 1017,6 - 0,0
21.04.2018 15:00:00 20,7 12,4 6 4 15 8 ZZW 1018,0 - 0,0
21.04.2018 14:00:00 20,7 12,7 11 6 23 12 Z 1018,3 18 0,0
21.04.2018 13:00:00 20,1 13,3 17 9 27 15 Z 1018,9 - 0,0
21.04.2018 12:00:00 19,1 12,6 20 11 29 16 Z 1019,3 - 0,0
21.04.2018 11:00:00 18,7 12,4 18 10 31 17 Z 1019,2 - 0,0
21.04.2018 10:00:00 18,3 12,1 15 8 24 13 Z 1019,2 - 0,0
21.04.2018 09:00:00 16,6 11,7 11 6 20 11 ZZO 1019,2 - 0,0
21.04.2018 08:00:00 14,9 10,5 11 6 16 9 ZO 1019,2 - 0,0
21.04.2018 07:00:00 15,3 11,1 11 6 18 10 OZO 1018,7 - 0,0
21.04.2018 06:00:00 15,5 11,7 11 6 16 9 O 1018,7 - 0,0
21.04.2018 05:00:00 17,4 9,8 12 6 17 9 OZO 1018,7 - 0,0
21.04.2018 04:00:00 17,8 9,9 11 6 18 10 ZO 1018,9 - 0,0
21.04.2018 03:00:00 18,3 10,9 15 8 21 11 ZO 1019,2 - 0,0
21.04.2018 02:00:00 17,3 12,0 12 7 17 9 OZO 1019,8 15 0,0
21.04.2018 01:00:00 16,8 12,5 11 6 16 9 O 1019,9 - 0,0
21.04.2018 00:00:00 16,3 12,6 5 3 13 7 O 1020,0 - 0,0
20.04.2018 23:00:00 17,6 12,5 8 4 14 8 O 1020,4 - 0,0
20.04.2018 22:00:00 17,7 12,8 5 3 11 6 NO 1020,1 - 0,0
20.04.2018 21:00:00 18,0 13,1 5 3 16 9 N 1019,6 - 0,0
20.04.2018 20:00:00 18,5 13,6 9 5 19 10 NNW 1019,6 - 0,0
20.04.2018 19:00:00 19,6 13,1 11 6 18 10 NNW 1019,7 - 0,0
20.04.2018 18:00:00 20,0 13,5 10 6 16 9 NW 1020,4 - 0,0
20.04.2018 17:00:00 21,2 12,3 9 5 15 8 WNW 1020,9 17 0,0
20.04.2018 16:00:00 21,4 12,5 6 4 10 6 NNW 1021,5 - 0,0
20.04.2018 15:00:00 21,9 9,8 6 4 16 9 WZW 1022,1 - 0,0
20.04.2018 14:00:00 22,3 12,5 9 5 21 11 ONO 1022,5 20 0,0
20.04.2018 13:00:00 20,1 11,8 12 7 22 12 O 1023,0 - 0,0
20.04.2018 12:00:00 19,3 12,6 9 5 23 12 ONO 1023,1 - 0,0
20.04.2018 11:00:00 18,1 11,9 11 6 21 11 O 1022,8 16 0,0
20.04.2018 10:00:00 17,1 10,7 13 7 24 13 O 1022,8 - 0,0
20.04.2018 09:00:00 15,9 10,0 15 8 24 13 O 1022,7 - 0,0
20.04.2018 08:00:00 14,8 10,8 11 6 23 13 O 1022,6 - 0,0
20.04.2018 07:00:00 15,3 8,3 11 6 22 12 O 1022,1 - 0,0
20.04.2018 06:00:00 16,3 7,8 12 7 22 12 O 1022,1 - 0,0
20.04.2018 05:00:00 16,0 6,7 14 7 21 12 OZO 1022,3 8 0,0
20.04.2018 04:00:00 16,5 7,7 16 8 25 13 OZO 1022,5 - 0,0
20.04.2018 03:00:00 17,4 9,0 13 7 21 11 O 1022,5 - 0,0
20.04.2018 02:00:00 17,8 8,9 14 8 22 12 ZO 1022,6 - 0,0
20.04.2018 01:00:00 18,3 11,4 11 6 18 10 O 1022,6 - 0,0
20.04.2018 00:00:00 18,0 10,6 9 5 14 8 O 1022,7 - 0,0
19.04.2018 23:00:00 16,1 10,8 4 2 13 7 OZO 1022,8 - 0,0
19.04.2018 22:00:00 17,2 11,5 8 4 14 8 NO 1022,5 - 0,0
19.04.2018 21:00:00 17,5 11,5 9 5 16 9 NNO 1022,0 - 0,0
19.04.2018 20:00:00 18,0 12,2 9 5 13 7 N 1021,8 17 0,0
19.04.2018 19:00:00 20,2 12,4 2 1 6 4 WNW 1022,1 - 0,0
19.04.2018 18:00:00 20,9 13,3 4 2 13 7 ZZW 1022,1 - 0,0
19.04.2018 17:00:00 21,5 12,9 12 7 21 11 Z 1022,3 - 0,0
19.04.2018 16:00:00 23,3 13,2 13 7 27 15 Z 1022,6 - 0,0
19.04.2018 15:00:00 23,3 12,9 19 10 29 16 Z 1022,9 - 0,0
19.04.2018 14:00:00 23,2 13,7 13 7 25 13 Z 1023,0 18 0,0
19.04.2018 13:00:00 22,6 13,4 13 7 23 12 Z 1023,3 - 0,0
19.04.2018 12:00:00 20,7 13,4 3 2 18 10 ZW 1023,3 - 0,0
19.04.2018 11:00:00 20,2 11,9 12 6 19 11 ZO 1023,2 - 0,0
19.04.2018 10:00:00 17,0 11,5 9 5 15 8 O 1023,0 - 0,0
19.04.2018 09:00:00 15,5 11,1 11 6 18 10 O 1023,0 - 0,0
19.04.2018 08:00:00 15,0 10,0 4 2 23 12 O 1022,6 - 0,0
19.04.2018 07:00:00 14,2 9,8 10 6 20 11 O 1022,1 - 0,0
19.04.2018 06:00:00 14,7 10,1 10 5 19 11 OZO 1022,2 - 0,0
19.04.2018 05:00:00 15,4 10,6 11 6 16 9 O 1022,3 - 0,0
19.04.2018 04:00:00 15,0 9,8 4 2 10 5 ZZO 1022,4 - 0,0
19.04.2018 03:00:00 17,0 10,1 9 5 23 12 OZO 1022,3 - 0,0
19.04.2018 02:00:00 18,6 10,2 12 6 18 10 O 1022,2 - 0,0
19.04.2018 01:00:00 18,8 10,6 13 7 18 10 O 1022,1 - 0,0
19.04.2018 00:00:00 18,6 10,7 10 6 19 10 O 1022,1 - 0,0
18.04.2018 23:00:00 18,4 11,7 13 7 23 12 O 1022,1 - 0,0
18.04.2018 22:00:00 18,4 11,5 9 5 17 9 ONO 1022,1 - 0,0
18.04.2018 21:00:00 18,6 11,2 9 5 14 8 ONO 1021,8 - 0,0
18.04.2018 20:00:00 18,7 12,0 7 4 11 6 ONO 1021,8 14 0,0
18.04.2018 19:00:00 20,5 13,0 6 3 16 9 NO 1021,9 - 0,0
18.04.2018 18:00:00 19,4 13,1 8 4 11 6 N 1022,1 - 0,0
18.04.2018 17:00:00 19,9 12,9 5 3 10 5 W 1022,4 18 0,0
18.04.2018 16:00:00 21,0 12,9 5 3 12 6 ZW 1022,7 - 0,0
18.04.2018 15:00:00 21,2 12,6 6 3 25 13 W 1023,1 - 0,0
18.04.2018 14:00:00 22,4 13,5 13 7 24 13 O 1023,2 18 0,0
18.04.2018 13:00:00 20,7 12,4 13 7 26 14 O 1023,6 - 0,0
18.04.2018 12:00:00 19,4 11,9 11 6 23 12 O 1024,1 - 0,0
18.04.2018 11:00:00 17,4 10,7 14 8 29 15 OZO 1024,3 - 0,0
18.04.2018 10:00:00 14,7 9,9 14 8 26 14 O 1024,4 - 0,0

tt = temperatuur
td = dauwpunt
ff = windsnelheid
fx = windstoten
dd = windrichting
ppp = luchtdruk
vv = zicht
rr = neerslag

Weerstations in de omgeving